Florala, AL

1:42 PM CDT on May 25, 2017 (GMT -0500)
Florala

Weather History for K0J4 - January, 2013

Change the Weather History Date:

Wednesday, January 16, 2013

  Actual Average (KCEW) Record (KCEW)
Temperature  
Mean Temperature 61 °F -  
Max Temperature 71 °F 59 °F 81 °F (1950)
Min Temperature 51 °F 35 °F 23 °F (1983)
Degree Days  
Heating Degree Days 4    
Growing Degree Days 11 (Base 50)    
Moisture  
Dew Point 59 °F    
Average Humidity 92    
Maximum Humidity 96    
Minimum Humidity 88    
Precipitation  
Precipitation 0.60 in - - ()
Sea Level Pressure  
Sea Level Pressure 29.98 in    
Wind  
Wind Speed 6 mph (West)    
Max Wind Speed 13 mph    
Max Gust Speed -    
Visibility 6 miles    
Events Rain    
Averages and records for this station are not official NWS values.
T = Trace of Precipitation, MM = Missing Value Source: NWS Daily Summary

Daily Weather History Graph

Daily Weather History Graph

Search for Another Location

Airport or City:

Trip Planner

Search our weather history database for the weather conditions in past years. The results will help you decide how hot, cold, wet, or windy it might be!

Date:

Astronomy

Jan. 16, 2013 Rise Set
Actual Time 6:43 AM CST 5:06 PM CST
Civil Twilight 6:17 AM CST 5:32 PM CST
Nautical Twilight 5:48 AM CST 6:02 PM CST
Astronomical Twilight 5:18 AM CST 6:31 PM CST
Moon 9:44 AM CST (1/16) 10:30 PM CST (1/16)
Length of Visible Light 11h 15m
Length of Day
10h 22m
Waxing Crescent, 28% of the Moon is Illuminated
Jan 16
Waxing Crescent
Jan 18
First Quarter
Jan 26
Full
Feb 3
Last Quarter
Feb 10
New

Hourly Weather History & Observations

Time (CST) Temp. Dew Point Humidity Pressure Visibility Wind Dir Wind Speed Gust Speed Precip Events Conditions
12:58 AM 68.0 °F 64.9 °F 90% 29.96 in 10.0 mi South 6.9 mph - N/A   Overcast
1:04 AM 68.0 °F 64.4 °F 88% 29.97 in 10.0 mi South 8.1 mph - N/A   Overcast
1:39 AM 69.8 °F 66.2 °F 88% 29.97 in 10.0 mi South 8.1 mph - 0.00 in Rain Light Rain
1:58 AM 69.1 °F 66.9 °F 93% 29.96 in 9.0 mi South 12.7 mph - 0.00 in   Overcast
2:31 AM 69.8 °F 66.2 °F 88% 29.96 in 10.0 mi South 10.4 mph - 0.00 in   Overcast
2:58 AM 70.0 °F 68.0 °F 93% 29.95 in 10.0 mi SSW 10.4 mph - 0.00 in Rain Light Rain
3:58 AM 71.1 °F 68.0 °F 90% 29.94 in 10.0 mi SSW 12.7 mph - 0.00 in   Overcast
4:58 AM 71.1 °F 68.0 °F 90% 29.95 in 10.0 mi SSW 10.4 mph - 0.00 in   Overcast
5:08 AM 71.6 °F 68.0 °F 88% 29.96 in 10.0 mi South 12.7 mph - N/A   Overcast
5:22 AM 71.6 °F 68.0 °F 88% 29.96 in 10.0 mi SSW 10.4 mph - N/A   Overcast
5:51 AM 71.6 °F 68.0 °F 88% 29.97 in 10.0 mi SSW 6.9 mph - N/A   Overcast
5:58 AM 71.1 °F 68.0 °F 90% 29.96 in 10.0 mi SSW 9.2 mph - N/A   Overcast
6:13 AM 71.6 °F 68.0 °F 88% 29.97 in 10.0 mi SSW 12.7 mph - N/A   Overcast
6:35 AM 71.6 °F 68.0 °F 88% 29.97 in 10.0 mi South 8.1 mph - N/A   Overcast
6:58 AM 71.1 °F 68.0 °F 90% 29.97 in 10.0 mi South 9.2 mph - N/A   Overcast
7:58 AM 71.1 °F 68.0 °F 90% 29.99 in 10.0 mi SSW 11.5 mph - N/A   Overcast
8:58 AM 64.0 °F 61.0 °F 90% 30.01 in 10.0 mi Variable 3.5 mph - N/A   Overcast
9:33 AM 60.8 °F 59.0 °F 94% 30.02 in 10.0 mi NNW 4.6 mph - 0.02 in Rain Light Rain
9:39 AM 60.8 °F 59.0 °F 94% 30.02 in 10.0 mi Variable 3.5 mph - 0.02 in   Overcast
9:57 AM 60.1 °F 57.9 °F 93% 30.01 in 9.0 mi Calm Calm - 0.02 in Rain Light Rain
10:10 AM 60.8 °F 59.0 °F 94% 30.01 in 2.5 mi North 3.5 mph - 0.04 in Rain Heavy Rain
10:18 AM 60.8 °F 59.0 °F 94% 30.01 in 1.5 mi Variable 4.6 mph - 0.09 in Rain Heavy Rain
10:23 AM 60.8 °F 59.0 °F 94% 30.00 in 1.8 mi North 4.6 mph - 0.09 in Rain Light Rain
10:27 AM 60.8 °F 59.0 °F 94% 30.00 in 3.0 mi Variable 3.5 mph - 0.09 in Rain Light Rain
10:31 AM 60.8 °F 59.0 °F 94% 30.00 in 7.0 mi North 4.6 mph - 0.09 in Rain Light Rain
10:40 AM 60.8 °F 59.0 °F 94% 30.00 in 5.0 mi Calm Calm - 0.10 in Rain Rain
10:58 AM 60.1 °F 59.0 °F 96% 29.99 in 4.0 mi WNW 4.6 mph - 0.12 in Rain Light Rain
11:04 AM 60.8 °F 57.2 °F 88% 29.99 in 2.0 mi Variable 3.5 mph - 0.03 in Rain Heavy Rain
11:07 AM 60.8 °F 57.2 °F 88% 29.99 in 1.8 mi Variable 3.5 mph - 0.05 in Rain Heavy Rain
11:11 AM 60.8 °F 59.0 °F 94% 29.99 in 1.8 mi NNW 3.5 mph - 0.05 in Rain Heavy Rain
11:16 AM 60.8 °F 59.0 °F 94% 29.99 in 2.5 mi Calm Calm - 0.06 in Rain Rain
11:20 AM 60.8 °F 57.2 °F 88% 29.99 in 4.0 mi Calm Calm - 0.06 in Rain Rain
11:28 AM 60.8 °F 57.2 °F 88% 29.99 in 2.5 mi Variable 3.5 mph - 0.09 in Rain Heavy Rain
11:43 AM 60.8 °F 57.2 °F 88% 29.98 in 1.2 mi Variable 3.5 mph - 0.16 in Rain Heavy Rain
11:54 AM 60.8 °F 59.0 °F 94% 29.98 in 2.5 mi Calm Calm - 0.19 in Rain Rain
11:58 AM 60.1 °F 57.9 °F 93% 29.97 in 2.5 mi Variable 4.6 mph - 0.19 in Rain Rain
12:12 PM 60.8 °F 59.0 °F 94% 29.97 in 3.0 mi Calm Calm - 0.04 in Rain Rain
12:17 PM 60.8 °F 59.0 °F 94% 29.97 in 5.0 mi Variable 4.6 mph - 0.04 in Rain Light Rain
12:58 PM 61.0 °F 59.0 °F 93% 29.95 in 10.0 mi Calm Calm - 0.04 in   Overcast
1:41 PM 60.8 °F 59.0 °F 94% 29.95 in 1.8 mi Variable 3.5 mph - 0.03 in Rain Heavy Rain
1:48 PM 60.8 °F 59.0 °F 94% 29.95 in 3.0 mi Variable 3.5 mph - 0.03 in Rain Light Rain
1:58 PM 60.1 °F 57.9 °F 93% 29.95 in 5.0 mi Variable 3.5 mph - 0.03 in Rain Light Rain
2:06 PM 60.8 °F 57.2 °F 88% 29.96 in 1.8 mi NNW 4.6 mph - 0.03 in Rain Heavy Rain
2:16 PM 60.8 °F 57.2 °F 88% 29.96 in 3.0 mi Calm Calm - 0.04 in Rain Light Rain
2:25 PM 59.0 °F 57.2 °F 94% 29.96 in 1.8 mi WNW 3.5 mph - 0.07 in Rain Heavy Rain
2:43 PM 59.0 °F 57.2 °F 94% 29.96 in 2.0 mi Variable 3.5 mph - 0.14 in Rain Rain
2:49 PM 59.0 °F 57.2 °F 94% 29.96 in 3.0 mi Calm Calm - 0.14 in Rain Light Rain
2:58 PM 59.0 °F 57.9 °F 96% 29.96 in 4.0 mi Calm Calm - 0.14 in Rain Light Rain
3:02 PM 59.0 °F 57.2 °F 94% 29.97 in 2.5 mi Calm Calm - 0.00 in Rain Light Rain
3:08 PM 59.0 °F 57.2 °F 94% 29.98 in 3.0 mi Calm Calm - 0.01 in Rain Light Rain
3:30 PM 57.2 °F 55.4 °F 94% 29.99 in 2.0 mi Calm Calm - 0.02 in Rain Light Rain
3:49 PM 57.2 °F 55.4 °F 94% 29.98 in 3.0 mi North 3.5 mph - 0.03 in Rain Light Rain
3:58 PM 57.0 °F 55.9 °F 96% 29.98 in 7.0 mi WNW 3.5 mph - 0.03 in Rain Light Rain
4:04 PM 57.2 °F 55.4 °F 94% 29.98 in 10.0 mi NNW 4.6 mph - 0.00 in Rain Light Rain
4:58 PM 55.9 °F 54.0 °F 93% 29.97 in 10.0 mi Calm Calm - 0.00 in   Overcast
5:58 PM 54.0 °F 52.0 °F 93% 30.00 in 10.0 mi Variable 3.5 mph - 0.00 in Rain Light Rain
6:58 PM 52.0 °F 50.0 °F 93% 30.01 in 10.0 mi Calm Calm - 0.01 in   Overcast
7:02 PM 51.8 °F 50.0 °F 94% 30.02 in 10.0 mi North 3.5 mph - N/A   Overcast
7:13 PM 51.8 °F 50.0 °F 94% 30.03 in 10.0 mi Calm Calm - N/A   Overcast
7:29 PM 51.8 °F 50.0 °F 94% 30.02 in 10.0 mi NW 3.5 mph - N/A   Overcast
7:58 PM 51.1 °F 50.0 °F 96% 30.01 in 7.0 mi NNW 4.6 mph - 0.01 in Rain Rain
8:08 PM 51.8 °F 50.0 °F 94% 30.02 in 7.0 mi North 4.6 mph - 0.00 in Rain Light Rain
8:15 PM 51.8 °F 50.0 °F 94% 30.01 in 9.0 mi North 4.6 mph - 0.00 in Rain Light Rain
8:58 PM 51.1 °F 50.0 °F 96% 30.00 in 8.0 mi NNE 3.5 mph - 0.01 in Rain Light Rain
9:58 PM 52.0 °F 50.0 °F 93% 29.99 in 10.0 mi Calm Calm - 0.00 in Rain Light Rain
10:29 PM 51.8 °F 50.0 °F 94% 29.99 in 10.0 mi Calm Calm - 0.00 in Rain Light Rain
10:57 PM 52.0 °F 50.0 °F 93% 29.96 in 10.0 mi Calm Calm - 0.00 in   Overcast
11:58 PM 51.1 °F 50.0 °F 96% 29.99 in 6.0 mi Variable 3.5 mph - N/A   Overcast